Waarnemingen

Advertentie
Mijn weer
Malmo/Sturup, Zweden (2636): temperatuur & dauwpunt: 15.09.2018 00:00:00 - 21.09.2018 00:00:00 (CEST)Malmo/Sturup, Zweden (2636): windsnelheid: 15.09.2018 00:00:00 - 21.09.2018 00:00:00 (CEST)Malmo/Sturup, Zweden (2636): windrichting: 15.09.2018 00:00:00 - 21.09.2018 00:00:00 (CEST)Malmo/Sturup, Zweden (2636): luchtdruk: 15.09.2018 00:00:00 - 21.09.2018 00:00:00 (CEST)Malmo/Sturup, Zweden (2636): zicht: 15.09.2018 00:00:00 - 21.09.2018 00:00:00 (CEST)
Datum & Tijd tt [°C] td [°C] ff [km/u] ff [kn] dd ppp [hPa] vv [km]
21.09.2018 00:00:00 16,4 14,7 11 6 Z 1010,7 10
20.09.2018 23:00:00 17,4 15,2 9 5 Z 1011,3 10
20.09.2018 22:00:00 17,2 15,2 11 6 Z 1011,5 10
20.09.2018 21:00:00 17,2 14,3 8 4 Z 1011,7 10
20.09.2018 20:00:00 18,9 14,0 11 6 ZW 1012,2 10
20.09.2018 19:00:00 19,4 14,2 13 7 ZW 1012,6 10
20.09.2018 18:00:00 19,8 15,0 15 8 ZW 1012,8 10
20.09.2018 17:00:00 19,9 14,3 18 10 ZW 1012,9 10
20.09.2018 16:00:00 20,3 14,2 28 15 ZW 1013,1 10
20.09.2018 15:00:00 20,0 14,8 29 16 ZW 1013,5 10
20.09.2018 14:00:00 19,7 14,9 24 13 ZW 1013,5 10
20.09.2018 13:00:00 19,1 14,6 29 16 ZW 1013,9 10
20.09.2018 12:00:00 19,4 14,0 28 15 ZW 1013,9 10
20.09.2018 11:00:00 19,4 14,2 31 17 ZW 1014,0 10
20.09.2018 10:00:00 18,7 14,4 29 16 ZW 1014,0 10
20.09.2018 09:00:00 18,3 14,4 22 12 ZW 1013,9 10
20.09.2018 08:00:00 17,3 14,4 16 9 ZW 1013,8 10
20.09.2018 07:00:00 17,1 13,8 18 10 ZW 1013,3 10
20.09.2018 06:00:00 17,4 14,5 18 10 ZW 1013,4 10
20.09.2018 05:00:00 17,4 13,9 18 10 ZW 1013,4 10
20.09.2018 04:00:00 17,7 13,8 21 11 WZW 1013,2 10
20.09.2018 03:00:00 17,4 13,7 15 8 ZW 1013,0 10
20.09.2018 02:00:00 17,8 13,5 13 7 ZW 1013,4 10
20.09.2018 01:00:00 17,6 13,7 11 6 WZW 1013,5 10
20.09.2018 00:00:00 18,0 14,3 11 6 ZW 1013,8 10
19.09.2018 23:00:00 17,2 14,3 15 8 Z 1014,2 10
19.09.2018 22:00:00 15,8 13,6 15 8 ZZO 1013,7 10
19.09.2018 21:00:00 15,8 13,3 11 6 ZO 1014,0 10
19.09.2018 20:00:00 14,5 12,7 11 6 Z 1014,5 10
19.09.2018 19:00:00 17,0 13,1 13 7 ZZW 1014,5 10
19.09.2018 18:00:00 19,1 14,1 18 10 ZZW 1014,6 10
19.09.2018 17:00:00 20,4 15,0 21 11 ZZW 1014,6 10
19.09.2018 16:00:00 20,5 14,8 24 13 ZW 1015,2 10
19.09.2018 15:00:00 20,7 14,6 28 15 ZW 1015,0 10
19.09.2018 14:00:00 21,4 14,1 24 13 ZZW 1015,5 10
19.09.2018 13:00:00 20,7 14,8 21 11 ZZW 1015,2 10
19.09.2018 12:00:00 20,1 15,3 18 10 ZW 1015,1 10
19.09.2018 11:00:00 19,6 15,5 15 8 ZW 1014,9 10
19.09.2018 10:00:00 18,1 15,9 16 9 WZW 1014,8 10
19.09.2018 09:00:00 16,4 15,4 22 12 WZW 1014,9 8
19.09.2018 08:00:00 15,6 15,1 16 9 WZW 1014,6 7
19.09.2018 07:00:00 15,0 14,5 15 8 WZW 1014,2 8
19.09.2018 06:00:00 14,8 14,2 13 7 WZW 1013,6 9
19.09.2018 05:00:00 15,0 14,0 11 6 ZW 1013,3 10
19.09.2018 04:00:00 15,5 13,9 13 7 WZW 1013,1 10
19.09.2018 03:00:00 15,3 13,5 11 6 WZW 1012,5 10
19.09.2018 02:00:00 16,3 13,4 9 5 WZW 1012,1 10
19.09.2018 01:00:00 16,7 13,2 8 4 W 1011,9 10
19.09.2018 00:00:00 17,2 13,5 13 7 NW 1012,0 10
18.09.2018 23:00:00 19,6 11,6 18 10 WZW 1011,4 10
18.09.2018 22:00:00 16,3 11,7 15 8 ZZO 1010,5 10
18.09.2018 21:00:00 16,5 13,4 9 5 ZZO 1010,8 10
18.09.2018 20:00:00 16,6 13,3 11 6 ZO 1010,9 10
18.09.2018 19:00:00 18,0 13,5 15 8 Z 1010,9 10
18.09.2018 18:00:00 21,5 13,7 18 10 ZZO 1011,1 10
18.09.2018 17:00:00 22,7 12,9 21 11 ZZO 1011,2 10
18.09.2018 16:00:00 24,3 11,9 22 12 Z 1011,5 10
18.09.2018 15:00:00 24,1 11,4 22 12 Z 1012,3 10
18.09.2018 14:00:00 24,1 10,0 28 15 Z 1012,9 10
18.09.2018 13:00:00 23,6 9,6 24 13 Z 1013,3 10
18.09.2018 12:00:00 22,7 10,5 21 11 Z 1013,8 10
18.09.2018 11:00:00 21,7 12,3 16 9 ZZO 1014,3 10
18.09.2018 10:00:00 20,1 13,3 13 7 Z 1014,6 10
18.09.2018 09:00:00 17,5 14,4 8 4 OZO 1015,0 10
18.09.2018 08:00:00 14,8 13,8 8 4 OZO 1015,2 10
18.09.2018 07:00:00 12,0 11,2 5 3 OZO 1015,3 10
18.09.2018 06:00:00 12,1 11,2 5 3 ZO 1015,3 10
18.09.2018 05:00:00 12,5 12,0 8 4 Z 1015,7 10
18.09.2018 04:00:00 11,8 11,0 9 5 Z 1015,9 10
18.09.2018 03:00:00 12,2 11,4 8 4 Z 1016,0 4,5
18.09.2018 02:00:00 12,1 11,3 9 5 ZZO 1016,5 10
18.09.2018 01:00:00 12,3 11,5 8 4 ZO 1016,6 10
18.09.2018 00:00:00 13,1 12,3 9 5 Z 1016,8 10
17.09.2018 23:00:00 12,9 11,6 8 4 Z 1017,2 10
17.09.2018 22:00:00 14,7 13,2 9 5 ZZW 1017,1 10
17.09.2018 21:00:00 17,3 13,2 11 6 ZW 1017,2 10
17.09.2018 20:00:00 17,3 13,0 13 7 ZZW 1017,0 10
17.09.2018 19:00:00 17,5 13,2 13 7 ZZW 1016,7 10
17.09.2018 18:00:00 19,3 13,2 15 8 WZW 1016,6 10
17.09.2018 17:00:00 20,1 13,8 16 9 WZW 1016,6 10
17.09.2018 16:00:00 19,9 14,5 15 8 WZW 1016,9 10
17.09.2018 15:00:00 19,8 14,2 22 12 WZW 1017,2 10
17.09.2018 14:00:00 19,7 14,1 21 11 WZW 1017,1 10
17.09.2018 13:00:00 19,7 14,5 22 12 ZW 1017,1 10
17.09.2018 12:00:00 18,2 13,9 18 10 WZW 1017,2 10
17.09.2018 11:00:00 17,4 13,5 21 11 WZW 1017,3 10
17.09.2018 10:00:00 17,8 13,9 21 11 WZW 1017,0 10
17.09.2018 09:00:00 16,9 13,0 18 10 ZW 1016,6 10
17.09.2018 08:00:00 16,0 12,6 18 10 WZW 1016,5 10
17.09.2018 07:00:00 15,9 12,5 16 9 ZW 1016,2 10
17.09.2018 06:00:00 16,7 11,8 18 10 WZW 1016,2 10
17.09.2018 05:00:00 16,7 12,0 16 9 ZW 1016,3 10
17.09.2018 04:00:00 16,1 12,3 16 9 ZW 1016,1 10
17.09.2018 03:00:00 15,9 12,1 18 10 ZZW 1016,5 10
17.09.2018 02:00:00 15,9 11,9 18 10 ZZW 1017,1 10
17.09.2018 01:00:00 15,8 12,4 16 9 ZZW 1017,5 10
17.09.2018 00:00:00 15,2 12,0 13 7 Z 1017,9 10
16.09.2018 23:00:00 15,2 11,8 16 9 Z 1018,4 10
16.09.2018 22:00:00 14,2 11,7 15 8 Z 1018,9 10
16.09.2018 21:00:00 14,2 12,4 13 7 Z 1019,3 10
16.09.2018 20:00:00 14,1 11,4 11 6 Z 1019,7 10
16.09.2018 19:00:00 14,6 10,8 16 9 Z 1019,5 10
16.09.2018 18:00:00 15,8 10,8 22 12 ZZW 1019,8 10
16.09.2018 17:00:00 16,2 12,0 22 12 ZZW 1020,3 10
16.09.2018 16:00:00 15,7 11,3 21 11 ZW 1020,8 10
16.09.2018 15:00:00 16,5 9,9 22 12 ZW 1021,3 10
16.09.2018 14:00:00 15,9 8,4 21 11 WZW 1021,7 10
16.09.2018 13:00:00 16,3 8,0 21 11 ZW 1022,1 10
16.09.2018 12:00:00 15,6 7,9 16 9 ZW 1022,6 10
16.09.2018 11:00:00 14,7 6,5 15 8 ZW 1022,8 10
16.09.2018 10:00:00 14,1 8,5 9 5 WZW 1023,0 10
16.09.2018 09:00:00 12,3 10,2 5 3 ZZW 1022,8 10
16.09.2018 08:00:00 6,6 6,3 4 2 ZZO 1022,8 10
16.09.2018 07:00:00 3,7 3,4 4 2 - 1022,6 10
16.09.2018 06:00:00 3,7 3,4 4 2 ZO 1022,4 10
16.09.2018 05:00:00 4,6 4,3 0 0 N 1022,1 10
16.09.2018 04:00:00 5,3 5,0 5 3 ZZW 1022,2 10
16.09.2018 03:00:00 6,1 5,7 8 4 WZW 1022,0 10
16.09.2018 02:00:00 7,7 6,6 8 4 W 1021,7 10
16.09.2018 01:00:00 9,4 7,8 9 5 W 1021,7 10
16.09.2018 00:00:00 10,1 8,0 8 4 WZW 1021,4 10
15.09.2018 23:00:00 10,8 7,9 8 4 WZW 1021,1 10
15.09.2018 22:00:00 11,2 7,1 9 5 WNW 1020,7 10
15.09.2018 21:00:00 12,5 7,2 9 5 W 1020,3 10
15.09.2018 20:00:00 13,1 6,9 9 5 W 1019,9 10
15.09.2018 19:00:00 13,8 6,9 16 9 WNW 1019,3 10
15.09.2018 18:00:00 14,1 6,7 18 10 WNW 1018,6 10
15.09.2018 17:00:00 14,7 6,8 21 11 WNW 1018,2 10
15.09.2018 16:00:00 15,1 7,4 29 16 WNW 1017,6 10
15.09.2018 15:00:00 16,0 9,0 28 15 WNW 1016,9 10
15.09.2018 14:00:00 15,5 8,2 31 17 W 1016,6 10
15.09.2018 13:00:00 17,2 9,6 29 16 W 1015,9 10
15.09.2018 12:00:00 16,4 9,8 26 14 W 1015,9 10
15.09.2018 11:00:00 16,2 10,9 21 11 W 1015,5 10
15.09.2018 10:00:00 15,7 11,1 26 14 W 1015,1 10
15.09.2018 09:00:00 14,7 11,5 22 12 WZW 1014,7 10
15.09.2018 08:00:00 14,2 11,4 18 10 WZW 1014,5 10
15.09.2018 07:00:00 14,1 11,1 22 12 WZW 1014,1 10
15.09.2018 06:00:00 13,8 10,0 16 9 ZW 1014,1 10
15.09.2018 05:00:00 14,2 9,8 13 7 WZW 1014,4 10
15.09.2018 04:00:00 14,8 9,6 14 8 ZW 1014,7 45
15.09.2018 03:00:00 14,7 9,1 11 6 ZZW 1015,1 10
15.09.2018 02:00:00 13,7 9,7 11 6 Z 1015,8 10
15.09.2018 01:00:00 14,0 10,0 11 6 ZZW 1016,1 10
15.09.2018 00:00:00 13,2 10,2 9 5 ZZW 1016,5 10

tt = temperatuur
td = dauwpunt
ff = windsnelheid
dd = windrichting
ppp = luchtdruk
vv = zicht

Weerstations in de omgeving